Lapse_Rate
-0.1 0.6 1.2 1.4 1.8 1.9 2.2 2.5 2.8 3.1 3.2 3.4 3.4 3.3 3.4 3.6 3.8 3.8 3.9 4.0 4.1 4.2 4.3 4.3 4.7 4.7 4.6 4.4 4.4 3.7 3.5 4.0
0.0 0.3 1.0 1.1 1.5 2.1 2.3 2.5 2.9 3.1 3.2 3.4 3.3 3.4 3.6 3.8 4.0 4.3 4.4 4.4 4.4 4.7 4.5 4.8 4.4 4.9 5.3 5.0 4.6 4.1 3.8 4.4
0.3 0.4 0.7 1.0 1.5 1.9 2.3 2.7 3.0 3.2 3.4 3.5 3.5 3.3 3.8 4.1 4.5 4.7 4.6 4.6 4.0 2.8 3.0 3.6 3.5 3.5 4.3 6.4 6.1 4.9 4.1 4.2
0.2 -0.2 0.1 0.6 2.3 1.8 1.9 2.4 2.4 2.7 3.0 2.9 3.2 3.5 4.0 4.5 4.7 5.2 4.1 3.0 3.6 3.7 1.7 2.4 1.8 1.7 3.0 4.4 5.1 4.1 3.8 3.2
0.2 0.2 0.5 0.9 1.9 1.2 1.4 2.0 2.2 2.6 3.0 3.4 3.5 3.8 4.1 4.1 3.9 3.6 2.2 2.3 2.8 3.3 3.0 2.7 2.3 3.7 3.8 4.9 3.8 2.9 2.7 2.5
1.1 1.1 0.8 1.2 1.5 1.6 1.7 2.2 2.1 2.2 2.9 3.3 3.4 3.4 2.9 2.9 2.3 1.0 1.2 1.4 2.0 2.2 2.9 3.1 3.2 3.8 3.8 3.8 2.7 2.2 2.0 2.3
2.0 1.8 1.9 1.6 1.9 2.1 2.6 2.7 2.5 2.8 3.3 3.9 4.2 2.5 1.1 1.4 1.2 1.7 1.9 1.8 2.0 2.5 3.5 3.9 3.9 3.9 3.2 3.2 3.0 2.3 1.9 2.0
2.6 2.4 2.2 2.1 2.2 1.8 2.3 2.8 3.2 3.0 3.2 3.4 2.9 2.1 1.3 1.4 1.1 1.6 2.0 2.0 2.1 3.0 4.2 4.7 3.9 3.0 2.6 2.1 2.4 1.8 1.0 1.4
2.5 2.8 1.9 2.3 1.7 1.2 1.8 1.9 1.8 1.6 1.8 2.5 2.4 2.2 1.9 1.3 1.1 1.4 2.0 2.2 2.4 3.4 4.5 3.9 3.4 2.9 2.1 1.5 1.5 1.4 1.0 1.2
2.6 3.8 2.1 1.0 1.2 0.6 1.4 1.4 1.0 0.8 1.2 1.7 2.0 1.8 2.0 1.7 1.7 1.9 2.2 2.1 2.9 3.6 3.9 2.7 2.4 1.9 1.4 1.0 1.3 1.4 1.4 1.8
1.7 1.1 1.1 0.8 0.7 0.6 0.6 0.7 1.0 1.1 1.4 1.5 1.7 1.9 2.3 2.2 2.1 2.0 2.5 2.7 2.8 3.2 2.9 2.5 1.8 1.4 0.9 -0.3 0.5 0.4 0.9 1.7
0.3 -0.2 -0.4 -0.2 -0.2 0.2 0.6 0.8 1.5 1.3 1.1 1.2 1.6 1.8 2.1 2.3 1.6 1.6 2.5 2.4 3.0 2.9 2.1 0.9 1.0 1.2 1.4 -0.0 -0.8 -0.5 0.5 0.7
0.3 -0.3 -0.5 0.1 0.5 0.6 1.1 1.6 1.8 1.6 1.5 1.9 1.6 1.8 2.1 1.6 1.2 1.4 2.0 2.3 2.5 2.5 1.3 1.0 0.6 0.4 0.7 0.9 0.3 0.1 0.3 1.9
0.0 -0.0 -0.0 -0.1 0.3 -0.0 0.8 1.6 1.4 1.3 0.9 1.3 1.6 1.8 1.6 1.6 1.3 0.8 1.6 1.7 2.2 2.3 2.4 2.2 1.4 0.9 1.8 2.3 3.2 2.6 1.2 2.0
0.5 0.8 1.1 0.6 0.9 1.1 1.6 1.6 0.9 0.4 -0.0 -0.0 0.9 1.5 1.7 1.8 1.9 1.6 1.2 1.1 1.4 1.7 2.2 3.3 3.0 1.8 2.9 5.3 4.5 4.1 2.3 0.4
1.7 1.7 0.9 1.0 1.3 2.1 3.0 1.7 0.6 -0.1 0.2 0.1 0.0 1.3 1.6 1.9 1.7 1.4 1.1 0.8 1.1 1.4 1.3 1.6 2.4 3.4 3.3 4.6 4.8 4.0 4.5 3.5
1.3 1.4 1.7 2.3 2.9 3.0 2.4 1.6 0.6 0.2 0.2 0.2 0.1 0.2 1.3 1.6 1.6 1.6 1.2 1.0 0.8 1.2 1.2 1.3 1.5 2.0 2.6 3.0 3.6 4.5 4.6 4.7
2.0 2.5 3.2 3.4 3.6 3.3 2.8 2.8 1.3 0.8 0.2 0.1 -0.2 -0.2 -0.3 0.9 1.7 1.5 1.6 1.2 1.0 0.9 1.0 1.7 1.4 1.4 2.0 2.5 3.6 4.3 4.6 5.1
2.6 3.4 3.9 4.2 3.8 4.0 3.9 3.3 1.6 1.5 0.9 0.6 -0.1 -0.3 -0.4 -0.0 0.6 0.6 0.8 1.6 1.7 1.8 1.5 1.8 2.2 2.5 2.7 3.0 3.0 3.5 3.8 4.3
3.8 4.4 4.6 4.2 4.4 4.6 4.6 4.3 2.2 2.3 1.8 1.2 0.7 0.6 0.7 0.5 0.5 1.1 1.7 2.1 1.8 1.8 1.3 1.4 1.5 1.7 2.9 2.9 3.0 3.3 3.5 3.7
Wind_Speed
13 14 16 18 19 19 19 19 18 18 17 16 14 12 11 9 8 7 6 6 5 5 3 3 6 11 15 16 11 9 8 7
10 13 14 15 15 18 19 19 19 19 17 16 14 12 10 9 8 6 4 4 4 4 4 4 9 12 15 19 14 12 11 9
10 12 14 15 13 15 17 19 19 18 16 15 13 9 8 7 6 6 5 4 3 6 7 7 12 16 22 25 19 10 10 12
9 9 11 15 12 14 14 14 14 15 14 14 12 9 8 7 7 5 3 6 4 4 7 14 16 12 13 23 9 6 5 9
10 10 12 13 10 12 10 11 13 13 14 14 12 9 5 1 6 9 7 3 1 4 2 8 12 1 5 14 5 7 7 5
13 12 10 11 12 10 11 10 10 9 14 15 11 6 7 6 8 9 7 3 3 1 1 5 6 7 9 4 6 7 7 8
13 11 10 7 7 9 10 8 8 10 12 14 11 7 5 8 10 10 6 4 4 3 5 2 6 11 13 9 6 10 11 9
12 12 8 10 7 6 5 10 10 10 10 11 12 13 10 8 6 5 5 8 5 4 4 5 6 8 8 9 8 7 12 9
13 11 8 8 6 7 8 9 10 8 10 13 14 14 13 10 6 4 3 2 2 7 4 10 5 8 7 8 8 9 13 12
11 10 9 8 9 5 8 11 10 10 11 13 13 14 13 9 4 1 2 2 2 2 6 5 5 4 4 4 6 10 12 10
8 9 10 9 8 7 8 10 8 9 12 12 11 10 8 6 4 3 2 2 2 2 3 4 5 4 5 4 3 4 5 9
11 9 10 9 7 7 6 5 7 8 8 10 9 7 7 8 6 5 3 3 2 3 4 4 3 3 5 5 4 5 7 8
12 12 9 8 6 6 5 5 5 3 6 9 8 8 8 8 7 6 4 4 2 4 4 4 3 1 3 2 3 5 5 5
8 9 8 4 4 3 3 4 3 4 5 8 8 7 8 8 7 4 4 4 5 4 3 2 2 3 3 2 2 1 2 2
8 8 8 6 5 6 5 5 4 3 2 3 3 6 7 8 8 6 4 4 4 3 3 3 2 3 4 2 1 3 1 1
7 7 6 6 7 5 10 4 4 3 3 3 3 6 6 7 8 8 6 4 4 3 3 2 3 2 1 1 2 3 3 2
6 6 5 6 7 5 5 5 3 3 3 6 4 4 7 9 9 7 5 4 3 4 3 4 2 2 2 0 1 2 1 2
6 7 7 8 7 7 6 8 6 5 4 4 4 3 4 8 9 8 6 4 4 4 3 4 4 3 2 1 2 1 2 3
7 8 7 8 8 8 7 7 7 8 8 5 5 4 3 6 6 6 4 6 6 5 4 3 3 2 3 2 1 1 1 1
10 10 9 9 9 9 8 8 6 6 8 6 6 6 6 7 7 9 9 9 8 7 3 3 4 3 4 3 2 1 1 1
Wind_Direction
142 145 152 156 162 163 162 160 159 160 160 158 164 165 163 158 153 155 149 140 139 131 108 56 352 335 322 320 333 330 310 284
138 142 149 154 160 164 164 162 164 167 165 165 171 170 167 171 167 173 168 170 174 144 110 23 11 341 319 311 315 318 309 298
155 153 153 155 157 164 163 165 170 168 168 171 173 173 175 177 182 191 192 187 151 77 57 80 55 5 337 312 295 284 313 299
167 162 161 156 157 158 160 161 166 167 171 174 179 177 189 192 202 208 111 130 134 126 68 48 35 27 338 324 331 0 30 3
171 167 167 159 155 157 157 158 169 174 175 185 186 184 184 203 147 106 108 88 160 254 323 60 54 10 353 303 34 68 62 28
171 171 171 172 154 163 163 171 176 176 187 189 180 159 138 126 105 110 122 120 59 71 0 95 43 60 66 94 26 59 58 41
172 171 172 166 158 164 168 173 177 178 184 189 179 146 122 126 120 143 173 199 208 246 60 58 62 85 100 78 56 30 28 48
173 174 156 161 181 151 137 155 173 172 176 176 155 141 132 129 130 159 217 231 223 225 93 54 72 79 91 88 64 60 74 35
170 171 148 157 125 126 140 148 137 121 127 139 139 140 140 143 150 188 226 231 188 130 104 105 93 83 60 60 61 67 65 34
164 161 133 125 129 120 124 126 117 116 116 122 131 139 144 143 157 208 191 221 324 30 123 107 86 75 80 60 53 57 70 61
141 122 129 127 110 108 105 104 107 110 115 121 132 140 143 134 128 135 123 90 56 124 104 117 116 109 90 61 51 72 73 96
122 118 119 118 110 101 94 100 99 110 132 130 134 131 126 128 118 95 82 76 55 63 93 70 86 94 89 63 37 38 41 43
135 136 133 135 130 127 129 128 125 111 101 118 123 124 127 124 109 101 85 92 98 116 109 89 77 80 78 47 48 36 37 35
120 130 138 126 120 122 124 133 101 99 108 118 133 124 111 112 114 97 99 106 83 65 93 133 101 191 117 127 34 14 45 38
135 144 145 140 118 109 96 83 82 86 106 86 96 116 113 117 120 128 119 108 117 111 108 120 138 218 228 132 97 238 220 141
137 137 139 139 146 139 161 150 147 163 136 124 127 134 131 139 148 156 153 153 153 149 143 135 121 169 331 317 268 131 199 297
134 139 143 150 162 166 142 122 103 117 115 134 150 164 171 174 175 175 173 158 133 133 132 137 134 130 163 266 320 192 156 174
145 154 162 169 166 163 154 157 140 133 141 158 177 183 190 191 190 189 181 157 165 166 155 160 159 144 137 160 180 195 251 208
155 163 166 171 173 176 174 165 162 165 167 170 173 178 199 211 191 189 182 189 184 171 161 159 161 147 163 180 194 211 254 277
166 171 175 181 188 192 196 168 169 177 178 179 191 194 197 188 194 192 199 188 179 175 172 182 166 169 181 185 171 208 180 202